date,time,DOY,Ta_1_1_1,Pa_1_1_1,RH_1_1_1,LWin_1_1_1,LWout_1_1_1,SWin_1_1_1,SWout_1_1_1,PPFD_1_1_1,MWS_1_1_1,WD_1_1_1,SWC_1_1_1,Ts_1_1_1
[yyyy-mm-dd],[HH:MM],[ddd.ddd],[K],[Pa],[%],[W+1m-2],[W+1m-2],[W+1m-2],[W+1m-2],[µmol+1m-2s-1],[m+1s-1],[deg],[m+3m-3],[K]
2014-12-08,00:30,342.020,269.39866666666666,94887.166666666672,85.805333333333337,0.45700000000000007,-4.5630000000000006,-0.13299999999999998,-0.46000000000000013,-2.00000000000000039E-002,6.3466666666666667,158.15600000000001,0.32000000000000012,274.25400000000008
2014-12-08,01:00,342.041,269.40333333333319,94844.333333333328,86.930000000000021,0.46800000000000008,-2.4206666666666652,-0.20466666666666666,-0.13066666666666668,-2.76666666666666762E-002,6.3733333333333340,161.33233333333331,0.32000000000000012,274.24933333333331
2014-12-08,01:30,342.062,269.35999999999990,94802.399999999994,87.835999999999999,0.45299999999999996,-1.3439999999999999,-0.12500000000000003,-0.10100000000000002,-3.83333333333333443E-002,6.5366666666666680,163.84399999999999,0.32000000000000012,274.24899999999997
2014-12-08,02:00,342.083,269.35799999999989,94781.699999999997,88.783666666666690,0.44000000000000006,-0.71366666666666656,-0.13966666666666669,0.14966666666666667,-2.40000000000000074E-002,5.3233333333333341,170.08900000000000,0.32000000000000012,274.25133333333338
2014-12-08,02:30,342.104,269.34766666666656,94770.733333333337,89.223666666666674,0.46499999999999997,-0.40966666666666673,-6.40000000000000291E-002,3.06666666666666685E-002,-1.90000000000000030E-002,5.2933333333333330,166.99933333333331,0.32000000000000012,274.25000000000000
2014-12-08,03:00,342.124,269.36666666666662,94743.566666666666,89.336000000000013,0.40433333333333332,-0.31999999999999995,-4.33333333333333487E-002,4.83333333333333323E-002,-1.00000000000000019E-002,5.1466666666666665,165.32100000000000,0.32000000000000012,274.24633333333333
2014-12-08,03:30,342.145,269.38133333333320,94693.766666666663,89.654666666666714,0.38600000000000007,-0.18633333333333332,-8.53333333333333860E-002,0.10666666666666670,-8.00000000000000017E-003,5.4300000000000006,159.07800000000000,0.32000000000000012,274.25000000000000
2014-12-08,04:00,342.166,269.35999999999990,94657.433333333334,89.785666666666714,0.39266666666666677,-0.14666666666666667,-6.66666666666666449E-003,9.99999999999999847E-003,-1.30000000000000046E-002,4.8733333333333340,160.16733333333335,0.32000000000000012,274.24700000000001
2014-12-08,04:30,342.187,269.41433333333339,94615.766666666663,89.842666666666659,0.36933333333333329,-0.13899999999999998,2.26666666666666752E-002,-1.20000000000000020E-002,-1.90000000000000030E-002,4.5699999999999994,163.16633333333337,0.32000000000000012,274.24733333333336
2014-12-08,05:00,342.208,269.48900000000009,94587.399999999994,89.196333333333300,0.35566666666666669,-0.17700000000000002,4.26666666666666722E-002,-0.10733333333333338,-2.93333333333333363E-002,4.2099999999999991,163.72233333333332,0.32000000000000012,274.24099999999987
2014-12-08,05:30,342.229,269.56000000000017,94552.933333333334,89.816333333333333,0.34566666666666668,-0.12800000000000000,3.26666666666666841E-002,-2.20000000000000057E-002,-2.30000000000000066E-002,4.5733333333333341,160.34499999999997,0.32000000000000012,274.24333333333328
2014-12-08,06:00,342.249,269.60899999999998,94522.666666666672,89.813666666666691,0.33300000000000002,-0.11633333333333334,3.40000000000000024E-002,-4.20000000000000095E-002,-2.50000000000000083E-002,4.3199999999999994,160.74466666666663,0.32000000000000012,274.24433333333326
2014-12-08,06:30,342.270,269.65999999999991,94497.399999999994,89.433000000000050,0.31833333333333336,-0.14366666666666669,5.26666666666666811E-002,-0.11066666666666672,-3.00000000000000128E-002,4.2833333333333332,159.64433333333332,0.32000000000000012,274.24200000000002
2014-12-08,07:00,342.291,269.70433333333341,94466.766666666663,89.460666666666668,0.32766666666666666,-0.14200000000000002,4.33333333333333487E-002,-7.73333333333333789E-002,-1.66666666666666734E-002,4.2133333333333338,156.26633333333334,0.32000000000000012,274.24133333333333
2014-12-08,07:30,342.312,269.79200000000003,94451.166666666672,89.935999999999993,0.31366666666666670,-0.10566666666666666,0.16899999999999998,0.42966666666666664,1.1993333333333334,4.6133333333333324,160.28833333333333,0.32000000000000012,274.24066666666664
2014-12-08,08:00,342.333,269.93800000000010,94436.966666666660,89.505666666666670,0.30300000000000005,-7.16666666666666841E-002,1.4629999999999999,5.9199999999999999,14.105999999999998,3.8999999999999999,162.41166666666669,0.32000000000000012,274.23833333333334
2014-12-08,08:30,342.354,270.14166666666671,94442.800000000003,89.394666666666652,0.33499999999999996,0.19500000000000001,7.6393333333333340,31.047999999999998,62.143666666666675,3.7000000000000002,165.98766666666663,0.32000000000000012,274.23933333333321
2014-12-08,09:00,342.374,270.36566666666670,94450.666666666672,89.256333333333330,0.46066666666666678,0.45333333333333337,13.216000000000001,54.680999999999997,116.20399999999999,3.5400000000000009,166.87666666666664,0.32000000000000012,274.24399999999997
2014-12-08,09:30,342.395,270.64299999999997,94446.266666666663,89.010999999999996,0.63900000000000001,0.79366666666666674,20.606999999999996,86.452999999999975,181.33866666666665,3.6699999999999999,175.59966666666665,0.32000000000000012,274.23699999999991
2014-12-08,10:00,342.416,270.83766666666662,94438.333333333328,89.088333333333352,0.79699999999999960,0.70766666666666667,18.208000000000002,76.749333333333325,165.18499999999997,4.6566666666666672,182.29966666666667,0.32000000000000012,274.23833333333334
2014-12-08,10:30,342.437,271.04100000000011,94429.366666666669,89.927999999999983,0.77966666666666673,0.65600000000000003,17.562000000000001,73.775333333333336,159.82366666666664,4.0599999999999996,184.47733333333332,0.32000000000000012,274.23533333333330
2014-12-08,11:00,342.458,271.28666666666658,94415.333333333328,90.614000000000019,0.73800000000000010,0.62166666666666670,16.925000000000004,71.028000000000006,156.05766666666665,3.7466666666666670,185.92200000000000,0.32000000000000012,274.23666666666662
2014-12-08,11:30,342.479,271.43133333333333,94391.133333333331,90.952333333333371,0.66733333333333311,0.48933333333333340,14.223666666666668,59.800333333333313,133.11399999999998,3.6733333333333333,190.55633333333336,0.32000000000000012,274.23766666666671
2014-12-08,12:00,342.499,271.61999999999995,94370.233333333337,90.957666666666668,0.60033333333333327,0.46666666666666667,14.070000000000002,59.332000000000015,132.47966666666667,3.0033333333333330,189.14266666666663,0.32000000000000012,274.23800000000000
2014-12-08,12:30,342.520,271.76533333333339,94367.366666666669,91.055999999999997,0.49366666666666675,0.37600000000000006,12.161333333333333,51.424000000000007,116.20633333333333,3.0300000000000007,201.47733333333332,0.32000000000000012,274.23400000000004
2014-12-08,13:00,342.541,271.83866666666660,94368.699999999997,91.269333333333336,0.42333333333333323,0.31700000000000000,10.269666666666668,43.835333333333338,98.460333333333352,3.0833333333333330,207.27799999999999,0.32000000000000012,274.23266666666666
2014-12-08,13:30,342.562,271.98466666666678,94375.033333333340,91.210999999999999,0.41600000000000009,0.33833333333333326,9.5083333333333311,41.272666666666659,91.928000000000026,2.9733333333333332,212.52166666666665,0.32000000000000012,274.23199999999997
2014-12-08,14:00,342.583,272.13099999999991,94384.000000000000,91.173333333333346,0.41100000000000009,0.26900000000000007,7.1579999999999986,31.434333333333328,70.460999999999984,2.3933333333333326,225.88833333333332,0.32000000000000012,274.23566666666665
2014-12-08,14:30,342.604,272.28333333333336,94402.300000000003,91.007333333333321,0.45700000000000002,0.30633333333333329,8.1619999999999973,36.100666666666669,79.025333333333336,2.8166666666666673,245.37800000000004,0.32000000000000012,274.23233333333332
2014-12-08,15:00,342.624,272.40433333333334,94430.533333333340,90.859999999999957,0.40566666666666679,0.21166666666666673,5.8790000000000013,26.144666666666669,56.531333333333336,2.2700000000000000,262.05500000000001,0.32000000000000012,274.23533333333330
2014-12-08,15:30,342.645,272.45666666666671,94466.100000000006,90.578333333333319,0.41400000000000003,3.66666666666666738E-002,2.4963333333333328,11.711999999999996,25.672000000000001,2.9100000000000006,281.40066666666667,0.32000000000000012,274.23333333333329
2014-12-08,16:00,342.666,272.46000000000004,94519.333333333328,90.617999999999995,0.43633333333333335,1.79999999999999986E-002,0.84833333333333305,4.0096666666666669,8.6196666666666690,2.5200000000000014,294.64466666666669,0.32000000000000012,274.23099999999994
2014-12-08,16:30,342.687,272.29200000000014,94572.233333333337,90.558333333333337,0.42200000000000004,8.99999999999999932E-003,9.06666666666666871E-002,0.83499999999999974,1.7170000000000001,3.6866666666666652,305.29899999999998,0.32000000000000012,274.23233333333332
2014-12-08,17:00,342.708,271.83566666666673,94629.766666666663,89.988666666666660,0.53766666666666663,-2.43333333333333388E-002,-0.15066666666666667,-0.16933333333333331,-3.33333333333341508E-004,4.0400000000000009,281.93366666666668,0.32000000000000012,274.22933333333333
2014-12-08,17:30,342.729,271.53199999999998,94685.633333333331,90.515000000000015,0.53466666666666673,-1.09999999999999994E-002,-3.83333333333333304E-002,-6.00000000000000255E-002,-4.10000000000000156E-002,4.2466666666666661,295.16733333333337,0.32000000000000012,274.23199999999997
2014-12-08,18:00,342.749,271.16466666666673,94750.500000000000,90.530333333333317,0.54633333333333334,1.33333333333333342E-002,-0.12199999999999998,-1.80000000000000021E-002,-3.86666666666666756E-002,4.5399999999999983,283.35499999999996,0.32000000000000012,274.22600000000006
2014-12-08,18:30,342.770,270.65800000000002,94801.166666666672,89.913999999999987,0.63533333333333331,-5.86666666666666725E-002,-0.11633333333333337,-5.83333333333333481E-002,-4.30000000000000174E-002,5.3199999999999985,278.77199999999999,0.32000000000000012,274.22533333333342
2014-12-08,19:00,342.791,270.35999999999996,94827.100000000006,89.991999999999990,0.68900000000000017,-4.16666666666666713E-002,-1.80000000000000021E-002,-5.13333333333333489E-002,-5.20000000000000184E-002,3.9533333333333336,277.91100000000000,0.32000000000000012,274.23199999999997
2014-12-08,19:30,342.812,270.06800000000004,94857.000000000000,90.504666666666665,0.58600000000000008,-9.00000000000000105E-003,6.66666666666666709E-003,2.46666666666666666E-002,-4.36666666666666800E-002,5.1766666666666659,286.73333333333335,0.32000000000000012,274.22800000000007
2014-12-08,20:00,342.833,269.95566666666667,94898.066666666666,90.427999999999969,0.49800000000000000,-2.06666666666666700E-002,3.13333333333333380E-002,-1.33333333333333264E-003,-5.00000000000000097E-002,4.7066666666666661,286.35599999999999,0.32000000000000012,274.22466666666674
2014-12-08,20:30,342.854,269.85999999999990,94931.733333333337,90.566666666666649,0.41666666666666669,-2.50000000000000083E-002,3.73333333333333364E-002,1.93333333333333308E-002,-4.63333333333333444E-002,4.9066666666666672,288.37799999999999,0.32000000000000012,274.22600000000000
2014-12-08,21:00,342.874,269.85999999999990,94958.333333333328,90.634333333333359,0.29666666666666663,-1.73333333333333360E-002,3.33333333333333259E-002,5.33333333333333506E-002,-4.73333333333333592E-002,5.3066666666666684,276.82300000000004,0.32000000000000012,274.22266666666667
2014-12-08,21:30,342.895,269.85999999999990,94982.466666666660,90.268999999999991,0.27233333333333326,-3.26666666666666702E-002,2.53333333333333327E-002,-9.33333333333333411E-003,-3.93333333333333451E-002,5.0033333333333312,273.96566666666666,0.32000000000000012,274.22566666666665
2014-12-08,22:00,342.916,269.93000000000006,95025.433333333334,89.785000000000011,0.25200000000000000,-2.70000000000000101E-002,5.60000000000000220E-002,-2.66666666666666701E-003,-2.80000000000000110E-002,5.1366666666666658,280.85499999999996,0.32000000000000012,274.22100000000006
2014-12-08,22:30,342.937,269.98233333333343,95066.899999999994,89.364333333333335,0.27099999999999996,-1.96666666666666691E-002,4.13333333333333400E-002,-2.66666666666666684E-002,-2.90000000000000119E-002,4.3066666666666675,282.55500000000001,0.32000000000000012,274.22199999999992
2014-12-08,23:00,342.958,270.15100000000001,95109.833333333328,90.161333333333332,0.21533333333333329,-1.23333333333333333E-002,0.11400000000000002,5.86666666666666864E-002,-5.13333333333333558E-002,4.1066666666666656,294.27766666666668,0.32000000000000012,274.22766666666666
2014-12-08,23:30,342.979,270.62900000000002,95151.333333333328,90.323333333333323,0.13233333333333333,-8.66666666666666835E-002,0.15033333333333337,2.93333333333333328E-002,-3.63333333333333494E-002,4.5033333333333330,311.18866666666668,0.32000000000000012,274.22466666666674
2014-12-09,00:00,343.000,271.09133333333341,95180.666666666672,89.455333333333343,0.12199999999999998,-0.13066666666666665,0.13433333333333333,-0.11200000000000002,-3.96666666666666765E-002,5.2500000000000009,310.98899999999998,0.32000000000000012,274.22333333333336
